EHI
0 0 0 0 0 0 0 0 0 0 0 0 0 0 0 0 0 0 0 0 0 0 1 2 1 0 1 1 1 0 0 0 0 0 0 0 0 0 0 0 0 0 0 0
0 0 0 0 0 0 0 0 0 0 0 0 0 0 0 0 0 0 0 0 0 0 2 3 1 0 1 2 1 0 0 0 0 0 0 0 0 0 0 0 0 0 0 0
0 0 0 0 0 0 0 0 0 0 0 0 0 0 0 0 0 0 0 0 0 0 2 3 1 0 1 2 2 0 0 0 0 0 0 0 0 0 0 0 0 0 0 0
0 0 0 0 0 0 0 0 0 0 0 0 0 0 0 0 0 0 0 0 0 0 1 1 1 1 2 1 1 0 0 0 0 0 0 0 0 0 0 0 0 0 0 0
0 0 0 0 0 0 0 0 0 0 0 0 0 0 0 0 0 0 0 0 0 1 1 1 3 3 2 1 0 0 0 0 0 0 0 0 0 0 0 0 0 0 0 0
0 0 0 0 0 0 0 0 0 0 0 0 0 0 0 0 0 0 0 0 0 0 0 1 3 3 1 0 0 0 0 0 0 0 0 0 0 0 0 0 0 0 0 0
0 0 0 0 0 0 0 0 0 0 0 0 0 0 0 0 0 0 0 0 0 0 0 1 2 2 1 1 2 1 1 1 2 1 1 0 0 0 0 0 0 0 0 0
0 0 0 0 0 0 0 0 0 0 0 0 0 0 0 0 0 0 0 0 0 0 0 0 0 0 1 2 3 3 2 3 3 2 1 0 0 0 0 0 0 0 0 0
0 0 0 0 0 0 0 0 0 0 0 0 0 0 0 0 0 0 0 0 0 0 0 0 0 0 1 2 3 3 3 3 2 1 1 0 0 0 0 0 0 0 0 0
0 0 0 0 0 0 0 0 0 0 0 0 0 0 0 0 0 0 0 0 0 0 0 0 0 0 0 1 2 2 1 1 1 0 0 0 0 0 0 0 0 0 0 0
0 0 0 0 0 0 0 0 0 0 0 0 0 0 0 0 0 0 0 0 0 0 0 0 0 0 0 0 1 1 0 0 0 0 0 0 0 0 0 0 0 0 0 0
0 0 0 0 0 0 0 0 0 0 0 0 0 0 0 0 0 0 0 0 0 0 0 0 0 0 0 0 0 0 0 0 0 0 0 0 0 0 0 0 0 0 0 0
0 0 0 0 0 0 0 0 0 0 0 0 0 0 0 0 0 0 0 0 0 0 0 0 0 0 0 0 0 0 0 0 0 0 0 0 0 0 0 0 0 0 0 0
0 0 0 0 0 0 0 0 0 0 0 0 0 0 0 0 0 0 0 0 0 0 0 0 0 0 0 0 0 0 0 0 0 0 0 0 0 0 0 0 0 0 0 0
0 0 0 0 0 0 0 0 0 0 0 0 0 0 0 0 0 0 0 0 0 0 0 0 0 0 0 0 0 0 0 0 0 0 0 0 0 0 0 0 0 0 0 0
0 0 0 0 0 0 0 0 0 0 0 0 0 0 0 0 0 0 0 0 0 0 0 0 0 0 0 0 0 0 0 0 0 0 0 0 0 0 0 0 0 0 0 0
0 0 0 0 0 0 0 0 0 0 0 0 0 0 0 0 0 0 0 0 0 0 0 0 0 0 0 0 0 0 0 0 0 0 0 0 0 0 0 0 0 0 0 0
0 0 0 0 0 0 0 0 0 0 0 0 0 0 0 0 0 0 0 0 0 0 0 0 0 0 0 0 0 0 0 0 0 0 0 0 0 0 0 0 0 0 0 0
0 0 0 0 0 0 0 0 0 0 0 0 0 0 0 0 0 0 0 0 0 0 0 0 0 0 0 0 0 0 0 0 0 0 0 0 0 0 0 0 0 0 0 0
0 0 0 0 0 0 0 0 0 0 0 0 0 0 0 0 0 0 0 0 0 0 0 0 0 0 0 0 0 0 0 0 0 0 0 0 0 0 0 0 0 0 0 0
0 0 0 0 0 0 0 0 0 0 0 0 0 0 0 0 0 0 0 0 0 0 0 0 0 0 0 0 0 0 0 0 0 0 0 0 0 0 0 0 0 0 0 0
0 0 0 0 0 0 0 0 0 0 0 0 0 0 0 0 0 0 0 0 0 0 0 0 0 0 0 0 0 0 0 0 0 0 0 0 0 0 0 0 0 0 0 0
0 0 0 0 0 0 0 0 0 0 0 0 0 0 0 0 0 0 0 0 0 0 0 0 0 0 0 0 0 0 0 0 0 0 0 0 0 0 0 0 0 0 0 0
0 0 0 0 0 0 0 0 0 0 0 0 0 0 0 0 0 0 0 0 0 0 0 0 0 0 0 0 0 0 0 0 0 0 0 0 0 0 0 0 0 0 0 0
0 0 0 0 0 0 0 0 0 0 0 0 0 0 0 0 0 0 0 0 0 0 0 0 0 0 0 0 0 0 0 0 0 0 0 0 0 0 0 0 0 0 0 0
0 0 0 0 0 0 0 0 0 0 0 0 0 0 0 0 0 0 0 0 0 0 0 0 0 0 0 0 0 0 0 0 0 0 0 0 0 0 0 0 0 0 0 0
Wind_Speed
11 9 10 12 13 10 8 8 7 7 9 8 5 5 4 3 4 5 5 6 7 8 7 8 7 7 6 5 4 5 7 5 4 2 1 2 2 1 2 2 3 2 2 4
9 11 12 12 12 9 5 7 8 8 9 8 8 7 5 4 3 3 4 5 6 8 8 6 7 7 6 5 4 5 6 5 5 2 1 2 2 1 2 1 1 1 3 4
11 10 12 11 11 9 6 7 9 9 9 8 8 7 6 7 6 5 4 5 5 7 8 7 6 6 6 5 3 3 5 6 5 4 2 2 2 1 0 0 1 1 1 2
7 7 10 9 8 7 4 7 9 11 10 7 8 5 6 8 7 6 5 5 6 5 6 6 6 6 5 5 3 3 5 5 5 4 3 1 1 0 0 0 1 1 1 1
4 6 8 8 7 4 4 7 9 9 7 6 8 6 6 8 7 7 6 6 6 6 6 6 5 5 4 4 3 3 5 5 5 4 4 1 0 0 1 1 0 1 1 1
5 5 4 4 5 5 6 8 6 4 3 4 7 6 5 5 8 8 8 7 6 6 6 6 6 5 5 5 4 3 4 4 4 3 3 3 2 1 1 1 1 1 1 1
8 7 5 4 7 7 8 6 4 3 2 4 8 6 6 7 8 9 9 8 7 5 6 6 6 4 4 4 3 3 3 3 3 3 3 3 3 3 2 1 1 1 1 0
8 9 8 6 6 7 8 6 2 3 4 5 6 7 9 8 8 9 9 9 8 7 6 6 5 4 4 4 2 1 2 2 2 3 3 3 3 2 1 0 1 2 1 1
5 7 8 6 4 2 6 4 3 2 4 4 7 11 10 9 9 9 9 8 8 7 6 6 5 4 4 4 2 1 1 1 2 2 2 2 2 1 1 1 2 1 1 1
3 7 9 7 5 4 4 3 5 3 4 4 10 12 10 12 10 9 9 8 7 7 7 6 5 5 4 4 2 2 1 1 0 1 2 2 2 1 1 1 2 2 2 1
6 6 9 9 7 8 7 6 4 4 5 2 5 5 10 11 11 10 9 9 7 7 6 5 4 4 4 4 3 2 2 1 1 1 1 2 1 1 1 2 2 2 3 3
5 3 8 10 7 4 6 7 6 3 2 0 4 5 9 10 10 11 10 9 8 7 6 5 5 5 4 4 3 3 2 2 1 1 2 2 1 1 2 3 3 3 4 3
2 3 6 8 7 7 6 5 5 4 2 2 3 8 8 10 10 10 10 9 7 7 6 6 5 5 4 4 3 3 3 3 2 2 3 3 3 3 3 3 2 3 3 4
3 4 4 4 3 10 9 7 5 6 4 2 5 12 11 11 11 10 9 9 7 7 6 6 5 4 4 4 3 4 3 3 3 3 3 3 4 3 4 4 4 4 4 4
5 6 7 3 1 5 7 8 7 7 7 3 7 13 14 13 12 11 10 9 8 7 6 5 5 4 4 3 3 4 3 3 3 3 3 3 4 4 4 5 4 4 5 5
7 7 5 4 5 5 6 7 8 7 6 3 4 6 12 14 11 11 10 10 8 7 6 5 5 4 4 3 3 3 3 2 2 3 3 3 4 4 5 5 5 5 5 5
7 8 7 6 7 7 9 11 10 8 7 5 4 6 14 14 13 12 11 9 9 8 6 5 4 4 3 3 3 4 3 3 3 4 4 4 4 4 4 5 5 5 5 5
6 7 4 5 6 8 3 3 4 5 5 4 4 7 12 12 10 8 9 8 8 8 6 5 3 3 2 3 3 2 2 3 4 5 5 4 4 4 4 5 5 5 4 5
6 6 5 5 7 6 5 6 6 6 5 5 6 10 11 12 10 8 9 8 8 7 6 4 3 3 3 4 3 3 3 4 4 4 4 5 5 5 5 5 5 5 5 5
7 7 7 6 6 6 3 9 7 4 4 7 9 11 13 13 8 7 10 9 8 7 5 4 3 3 3 3 3 3 3 3 4 4 4 4 5 4 4 5 5 5 5 5
8 8 9 9 8 3 8 9 8 5 3 8 9 11 13 11 5 9 12 10 8 7 6 4 3 3 2 2 2 2 3 4 3 3 3 3 4 4 3 3 4 5 5 5
10 7 8 8 9 4 10 8 5 3 6 7 8 9 10 7 7 12 12 10 8 7 5 4 3 3 2 0 1 2 3 3 2 2 3 3 4 4 4 3 4 4 5 5
7 4 3 3 1 6 7 5 5 5 6 6 6 7 9 9 10 10 9 8 7 6 5 4 3 3 2 1 0 1 1 1 2 2 3 4 4 3 3 3 4 4 4 3
5 2 1 2 6 7 6 6 6 4 4 5 5 6 8 8 9 9 8 7 7 6 5 4 3 3 2 2 1 1 0 1 2 3 4 4 4 3 4 3 3 2 3 3
1 3 3 3 3 6 5 5 5 4 4 5 5 5 6 7 7 7 7 7 6 5 5 4 4 3 2 2 2 1 1 1 3 3 4 4 3 3 3 4 3 4 3 3
3 3 4 3 3 4 6 7 6 5 5 5 5 5 4 5 6 6 5 6 5 5 5 4 4 3 3 2 2 2 1 2 3 3 3 3 2 2 3 4 5 6 7 8
Wind_Direction
194 203 205 204 209 224 197 186 175 166 172 172 145 144 142 148 154 159 151 153 166 158 148 140 136 133 130 128 133 129 129 125 113 98 75 78 72 35 69 66 73 350 352 358
187 209 211 207 209 221 217 176 171 162 170 158 143 139 131 141 126 115 122 139 147 137 132 138 142 146 142 143 166 147 130 127 122 115 99 117 98 45 82 41 123 35 27 12
196 203 206 204 192 194 187 174 168 160 163 146 130 123 142 128 102 85 71 89 99 121 134 142 141 130 132 142 167 139 126 126 119 123 83 60 63 341 54 213 102 69 50 32
218 217 191 188 187 176 156 167 182 173 163 155 146 130 148 129 112 101 83 76 90 101 110 117 121 127 140 141 146 134 123 120 120 121 110 117 127 3 29 35 120 183 164 115
204 191 182 176 171 152 170 181 191 178 169 165 161 142 143 134 120 105 95 85 80 84 91 97 104 117 115 115 109 93 110 117 123 129 137 166 238 317 19 19 52 307 138 140
211 172 165 167 148 159 174 187 180 190 193 184 180 150 135 126 123 116 108 95 86 87 89 85 84 91 93 93 92 85 101 114 126 144 161 184 205 233 246 259 287 297 252 207
177 161 152 170 160 178 198 189 164 176 199 191 176 132 116 114 113 111 109 101 90 84 91 92 88 90 95 99 105 117 130 140 147 170 207 200 202 232 238 239 203 256 288 240
162 160 165 187 194 181 207 214 193 182 188 183 164 119 120 123 113 110 107 105 100 88 84 89 95 95 97 100 103 120 134 161 175 191 222 233 210 213 230 172 274 241 248 261
167 158 164 185 225 241 204 198 248 270 249 194 133 116 130 139 130 118 109 103 97 93 92 90 92 96 103 108 114 122 129 174 194 209 232 254 261 228 248 253 269 283 270 259
210 151 163 175 211 234 272 233 211 213 218 178 146 153 157 156 144 130 118 106 96 92 89 89 87 84 86 92 97 104 104 118 141 218 242 246 252 251 229 270 280 296 296 289
197 170 166 180 201 206 201 223 231 219 239 194 152 124 143 148 140 131 118 109 100 91 87 91 89 85 84 89 85 80 85 67 41 343 287 292 272 265 246 241 258 264 270 261
205 211 179 185 187 236 223 222 231 243 248 209 113 103 121 128 125 121 114 108 102 98 91 85 82 80 73 73 75 55 64 71 47 4 339 315 308 282 273 254 242 252 264 273
243 229 190 174 181 205 230 239 267 284 271 229 147 130 128 124 120 119 119 118 116 112 104 91 80 74 65 54 65 61 43 46 50 30 358 357 349 332 312 301 278 266 270 270
256 245 236 212 210 185 199 203 236 266 264 233 126 140 152 145 137 133 131 130 125 115 107 101 94 83 72 55 48 66 52 38 48 48 15 1 345 341 333 327 329 318 309 298
241 247 235 204 232 183 189 187 203 239 267 279 135 154 164 157 150 147 142 137 132 124 115 110 104 96 84 70 56 63 59 48 43 47 30 12 353 353 345 340 338 327 315 307
239 264 246 198 196 223 228 213 207 218 244 257 141 141 146 145 145 149 150 145 139 130 123 116 106 98 87 75 63 71 63 51 54 56 40 24 0 354 347 338 336 330 323 318
221 246 259 238 193 204 229 223 217 215 220 221 201 146 141 150 159 161 153 149 143 133 124 114 102 90 84 71 54 55 49 44 46 46 36 23 5 357 346 341 337 325 320 316
262 251 255 258 216 227 200 104 174 195 205 196 159 141 150 151 144 140 142 144 140 137 132 123 116 104 89 76 60 52 49 50 48 40 22 9 4 356 346 341 332 327 323 318
259 269 263 253 250 244 169 157 164 177 198 189 167 149 145 136 134 146 151 145 138 134 131 125 119 105 70 49 26 20 41 49 46 35 13 5 359 351 345 339 333 328 325 318
242 254 252 249 247 250 139 139 147 162 199 183 169 159 150 146 164 174 155 143 135 131 128 122 112 89 71 46 14 5 36 51 45 28 6 358 348 342 339 336 332 329 324 316
200 220 234 248 249 244 117 127 144 185 194 157 161 157 158 171 173 147 146 142 136 132 130 130 122 100 81 31 353 344 39 51 42 19 348 337 330 322 325 334 326 321 321 319
184 198 211 225 237 210 139 152 171 112 109 136 144 149 156 148 120 127 137 138 141 140 143 148 138 125 126 31 330 3 43 40 18 338 314 307 305 311 331 327 317 316 320 320
193 205 198 197 129 96 133 126 97 97 121 126 133 139 143 136 135 137 141 144 149 152 157 157 152 161 178 178 352 7 43 9 322 306 303 298 297 297 306 310 312 316 325 327
185 178 232 151 135 138 138 121 116 115 110 111 119 131 141 143 144 148 150 154 158 166 164 163 170 191 192 179 177 194 226 296 300 305 304 300 309 324 324 315 303 308 311 313
126 151 212 228 161 138 151 154 146 139 131 124 123 134 144 148 152 155 159 162 165 168 165 173 188 199 213 197 187 202 214 272 287 286 288 297 303 304 304 304 298 293 272 268
253 199 203 211 199 180 165 163 159 159 158 149 146 149 151 152 157 161 164 162 167 174 176 184 195 206 221 216 212 211 216 252 276 286 292 290 293 293 295 296 296 283 276 278